Location: M�rens
(43.7516°N, 0.5374°E)
Time: 18:27:55
(UTC+00:00)

Daily predictions for brighter satellites

Satellite Brightness Start Highest point End
(mag) Time Altitude Azimuth Time Altitude Azimuth Time Altitude Azimuth
Cosmos 1697 Rocket 2.8 17:35:02 10° S 17:40:33 58° ESE 17:46:06 10° NNE
Cosmos 1125 Rocket 4.0 17:35:59 10° S 17:40:49 38° ESE 17:45:39 10° NE
SME Rocket 4.3 17:39:17 10° N 17:43:07 51° WNW 17:48:03 10° SW
Cosmos 1908 4.3 17:41:29 10° SE 17:44:42 25° E 17:47:55 10° NE
Cosmos 1607 4.4 17:41:25 10° NNW 17:47:23 41° NE 17:53:12 10° ESE
Cosmos 1356 3.4 17:45:20 10° N 17:48:41 57° ENE 17:52:01 10° SSE
Meteor 1-24 Rocket 4.3 17:43:58 10° NNW 17:49:37 67° W 17:55:27 10° S
Cosmos 2227 Rocket 2.3 17:44:39 10° NNW 17:50:21 88° WSW 17:56:01 10° SSE
Iridium 4 Rocket 4.5 17:49:18 10° NNE 17:52:29 19° ENE 17:55:50 10° SE
Cosmos 494 Rocket 4.1 17:48:18 10° NNW 17:53:26 53° ENE 17:58:28 10° SE
Landsat 5 3.7 17:50:07 10° NNE 17:54:21 52° E 17:58:40 10° S
MOS 1-B Rocket 4.4 17:49:42 10° NNE 17:56:29 50° E 18:02:19 10° S
CZ-2C R/B 2.9 17:51:14 10° NNE 17:56:43 50° E 18:02:05 10° S
Timation 2 Rocket 4.2 17:50:18 10° NNW 17:57:14 78° ENE 18:03:57 10° SSE
SKYMED 2 3.6 17:53:01 10° NNE 17:57:20 59° E 18:01:37 10° S
Cosmos 1726 3.7 17:54:10 10° SSW 17:57:33 37° WNW 18:00:58 10° N
Aureole 2 4.5 17:56:16 10° NNW 17:59:13 68° WSW 18:02:20 10° SSE
Cosmos 1470 3.8 17:55:40 10° SSW 17:59:32 50° WNW 18:03:25 10° N
Okean O Rocket 1.5 17:57:19 10° SSE 18:01:36 66° ENE 18:05:56 10° N
Cosmos 2084 Rocket 4.3 17:58:09 10° WSW 18:01:52 45° NW 18:05:38 10° NNE
USA 215 4.5 17:56:30 10° NE 18:02:13 34° NNW 18:07:57 10° WNW
Cosmos 1758 3.5 18:02:23 10° SSW 18:06:23 77° W 18:10:22 10° N
CZ-4 R/B 2.1 18:04:25 10° SE 18:07:55 31° ENE 18:11:29 10° N
YAOGAN 1 3.2 18:04:48 10° SE 18:08:41 34° ENE 18:12:35 10° N
Cosmos 1703 3.8 18:05:05 10° N 18:08:44 35° ENE 18:12:20 10° SE
SL-16 R/B 3.8 18:06:47 10° SE 18:08:50 13° ESE 18:08:50 13° ESE
Okean-O 3.9 18:07:42 13° ESE 18:10:29 22° ENE 18:13:51 10° NNE
Cosmos 1455 Rocket 3.6 18:08:55 10° SSE 18:12:57 36° E 18:17:00 10° NNE
Cosmos 2082 3.6 18:09:54 10° NNW 18:15:33 75° ENE 18:21:09 10° SSE
Spot 2 4.0 18:12:56 10° SSE 18:16:52 55° ENE 18:20:58 10° N
Cosmos 1953 2.4 18:13:05 10° S 18:17:01 54° E 18:21:00 10° NNE
Cosmos 2150 Rocket 4.1 18:14:52 10° SSW 18:20:19 86° WNW 18:25:46 10° NNE
H-2A R/B 2.7 18:16:54 10° NE 18:20:31 30° E 18:24:10 10° SSE
Cosmos 1727 Rocket 4.1 18:15:04 10° N 18:21:19 80° W 18:27:28 10° S
Okean 1-7 Rocket 4.4 18:18:17 10° NNE 18:22:06 28° ENE 18:24:34 17° ESE
Meteor 1-21 Rocket 4.3 18:18:29 10° N 18:24:20 70° E 18:30:13 10° SSE
Cosmos 1544 Rocket 4.4 18:22:22 10° SSE 18:26:12 29° E 18:30:05 10° NNE
H-2A R/B 2.9 18:25:33 10° S 18:30:45 55° W 18:36:05 10° NNW
ATLAS 3B R/B 3.2 18:27:13 10° SW 18:33:39 58° NW 18:40:24 10° NNE
Cosmos 1300 3.8 18:31:01 10° SSE 18:38:01 - NNE 18:33:12 25° ESE
Lacrosse 4 Rocket 3.8 18:35:46 10° NNE 18:36:04 10° NE 18:36:04 10° NE
Cosmos 405 Rocket 2.7 18:34:30 10° N 18:38:24 61° E 18:42:20 10° SSE
CZ-4B R/B 4.3 18:34:28 10° S 18:39:52 47° W 18:45:21 10° NNW
ATLAS 5 CENTAUR R/B 1.3 18:40:00 10° SSW 18:43:47 60° ESE 18:45:39 30° NE
COSMO-SKYMED 1 3.9 18:41:17 10° N 18:45:23 42° WNW 18:49:27 10° SW
NOSS 3-1 (C) 4.2 18:44:42 10° SSE 18:47:41 24° SE 18:47:41 24° SE
Cosmos 2369 4.3 18:46:03 10° SW 18:51:37 59° WNW 18:57:15 10° NNE
Feng Yun 1-1 Rocket 4.4 18:46:12 10° S 18:51:39 73° WSW 18:57:18 10° NNW
HJ-1C 3.1 18:51:07 35° SSE 18:52:23 86° E 18:55:39 10° N
SL-8 R/B 4.0 18:48:13 10° SW 18:52:47 46° SE 18:53:45 40° ESE
Cosmos 2227 4.5 18:47:21 10° NNW 18:52:57 49° ENE 18:55:04 34° ESE
IRS-1C Rocket 4.0 18:50:40 10° SSE 18:55:54 75° ENE 19:01:10 10° N
Cosmos 1605 Rocket 4.1 18:50:45 10° SSE 18:56:38 48° E 19:02:39 10° NNE
H-2A R/B 3.2 18:52:23 10° S 18:56:45 58° W 19:01:00 10° NNW
Cosmos 1892 Rocket 4.2 18:55:07 10° NNW 18:59:31 58° W 19:03:52 10° S
SL-08 RB Rocket 4.2 18:55:14 10° S 18:59:42 62° W 19:04:14 10° NNW
Cosmos 1535 Rocket 4.4 18:55:10 10° S 19:01:20 72° E 19:07:38 10° NNE
Cosmos 1980 Rocket 2.7 19:00:11 10° SW 19:05:46 60° WNW 19:11:24 10° NNE
X-37B 1.3 19:05:34 10° W 19:08:08 54° W 19:08:08 54° W
Cosmos 489 Rocket 4.3 19:03:02 10° NNW 19:09:16 87° ENE 19:13:45 20° SSE
Cosmos 2263 Rocket 2.0 19:04:49 10° NNW 19:10:25 82° ENE 19:12:46 36° SSE
CSL-04 Debris 4.0 19:08:41 28° SSE 19:11:36 74° ENE 19:17:00 10° N
Cosmos 1269 Rocket 3.9 19:07:03 10° NNW 19:12:24 84° ENE 19:14:31 38° SSE
CZ-2C R/B 3.5 19:15:10 10° SSW 19:15:35 12° SSW 19:15:35 12° SSW
Cosmos 724 4.1 19:19:40 10° NNW 19:25:40 84° ENE 19:26:53 58° SE
Cosmos 1626 Rocket 3.8 19:24:32 10° N 19:28:11 62° NNW 19:28:11 62° NNW
Cosmos 371 Rocket 3.4 19:24:52 10° SSW 19:28:54 62° S 19:28:54 62° S
CSL-04 Rocket 3.7 19:30:11 39° S 19:32:21 83° WSW 19:37:56 10° NNW
Iridium 4 Rocket 4.5 19:28:28 10° NNW 19:32:34 40° W 19:36:58 10° SSW
MetOp-A 4.3 19:31:02 26° S 19:34:08 69° WSW 19:39:30 10° NNW
Gbstr 26 Del rocket 4.4 19:34:40 10° WNW 19:42:12 89° SSW 19:43:59 59° SE
CZ-4 R/B 3.8 19:39:55 10° SW 19:42:56 21° W 19:46:02 10° NW
Cosmos 1844 Rocket 4.0 19:41:14 10° N 19:44:20 28° NNE 19:44:20 28° NNE
Okean-O 3.9 19:45:17 30° SW 19:46:43 39° W 19:50:54 10° NNW
SL-16 R/B 2.8 19:46:54 10° SSW 19:50:51 47° SSW 19:50:51 47° SSW
H-2A R/B 4.2 19:53:04 10° NNW 19:56:22 24° WNW 19:59:40 10° WSW
Cosmos 2322 Rocket 4.5 20:04:58 10° SSW 20:05:21 12° SSW 20:05:21 12° SSW
Cosmos 2344 4.2 20:04:21 10° NW 20:13:39 80° NE 20:15:56 63° ESE
Lacrosse 4 Rocket 4.1 20:11:39 10° NNW 20:12:22 15° NNW 20:12:22 15° NNW
ATLAS 5 CENTAUR R/B 4.2 20:25:51 10° W 20:27:13 16° WNW 20:27:13 16° WNW
